SCP
0 0 0 0 0 0 0 0 0 0 0 0 0 0 0 0 0 0 0 0 0 0 0 0 0 0 0 0 0 0 0 0 0 0 0 0 0 0 0 0 0 0 0
0 0 0 0 0 0 0 0 0 0 0 0 0 0 0 0 0 0 0 0 0 0 0 0 0 0 0 0 0 0 0 0 0 0 0 0 0 0 0 0 0 0 0
-0 -0 0 0 0 0 0 0 0 0 0 0 0 0 0 0 0 0 0 0 0 0 0 0 0 0 0 0 0 0 0 0 0 0 0 0 0 0 0 0 0 0 0
-0 -0 -0 -0 -0 0 0 0 0 0 0 0 0 0 0 0 0 0 0 0 0 0 0 0 0 0 0 0 0 0 0 0 0 0 0 0 0 0 0 0 0 0 0
0 0 0 0 0 0 0 0 0 0 0 0 0 0 0 0 0 0 0 0 0 0 0 0 0 0 0 0 0 0 0 0 0 0 0 0 0 0 0 0 0 0 0
0 0 0 0 0 0 0 0 0 0 0 0 0 0 0 0 0 0 0 0 0 0 0 0 0 0 0 0 0 0 0 0 0 0 0 0 0 0 0 0 0 0 0
0 0 0 0 0 0 0 0 0 0 0 0 0 0 0 0 0 0 0 0 0 0 0 0 0 0 0 0 0 0 0 0 0 0 0 0 0 0 0 0 0 0 0
0 0 0 0 0 0 0 0 0 0 0 0 0 0 0 0 0 0 0 0 0 0 0 0 0 0 0 0 0 0 0 0 0 0 0 0 0 0 0 0 0 0 0
0 0 0 0 0 0 0 0 0 0 0 0 0 0 0 0 0 0 0 0 0 0 0 0 0 0 0 0 0 0 0 0 0 0 0 0 0 0 0 0 0 0 0
0 0 0 0 0 0 0 0 0 0 0 0 0 0 0 0 0 0 0 0 0 0 0 0 0 0 0 0 0 0 0 0 0 0 0 0 0 0 0 0 0 0 0
0 0 0 0 0 0 0 0 0 0 0 0 0 0 0 0 0 0 0 0 0 0 0 0 0 0 0 0 0 0 0 0 0 0 0 0 0 0 0 0 0 0 0
0 0 0 0 0 0 0 0 0 0 0 0 0 0 0 0 0 0 0 0 0 0 0 0 0 0 0 0 0 0 0 0 0 0 0 0 0 0 0 0 0 0 0
0 0 0 0 0 0 0 0 0 0 0 0 0 0 0 0 0 0 0 0 0 0 0 0 0 0 0 0 0 0 0 0 0 0 0 0 0 0 0 0 0 0 0
0 0 0 0 0 0 0 0 0 0 0 0 0 0 0 0 0 0 0 0 0 0 0 0 0 0 0 0 0 0 0 0 0 0 0 0 0 0 0 0 0 0 0
0 0 0 0 0 0 0 0 0 0 0 0 0 0 0 0 0 0 0 0 0 0 0 0 0 0 0 0 0 0 0 0 0 0 0 0 0 0 0 0 0 0 0
0 0 0 0 0 0 0 0 0 0 0 0 0 0 0 0 0 0 0 0 0 0 0 0 0 0 0 0 0 0 0 0 0 0 0 0 0 0 0 0 0 0 0
0 0 0 0 0 0 0 0 0 0 0 0 0 0 0 0 0 0 0 0 0 0 0 0 0 0 0 0 0 0 0 0 0 0 0 0 0 0 0 0 0 0 0
0 0 0 0 0 0 0 0 0 0 0 0 0 0 0 0 0 0 0 0 0 0 0 0 0 0 0 0 0 0 0 0 0 0 0 0 0 0 0 0 0 0 0
0 0 0 0 0 0 0 0 0 0 0 0 0 0 0 0 0 0 0 0 0 0 0 0 0 0 0 0 0 0 0 0 0 0 0 0 0 0 0 0 0 0 0
0 0 0 0 0 0 0 0 0 0 0 0 0 0 0 0 0 0 0 0 0 0 0 0 0 0 0 0 0 0 0 0 0 0 0 0 0 0 0 0 0 0 0
0 0 0 0 0 0 0 0 0 0 0 0 0 0 0 0 0 0 0 0 0 0 0 0 0 0 0 0 0 0 0 0 0 0 0 0 0 0 0 0 0 0 0
0 0 0 0 0 0 0 0 0 0 0 0 0 0 0 0 0 0 0 0 0 0 0 0 0 0 0 0 0 0 0 0 0 0 0 0 0 0 0 0 0 0 0
0 0 0 0 0 0 0 0 0 0 0 0 0 0 0 0 0 0 0 0 0 0 0 0 0 0 0 0 0 0 0 0 0 0 0 0 0 0 0 0 0 0 0
0 0 0 0 0 0 0 0 0 0 0 0 0 0 0 0 0 0 0 0 0 0 0 0 0 0 0 0 0 0 0 0 0 0 0 0 0 0 0 0 0 0 0
0 0 0 0 0 0 0 0 0 0 0 0 0 0 0 0 0 0 0 0 0 0 0 0 0 0 0 0 0 0 0 0 0 0 0 0 0 0 0 0 0 0 0
0 0 0 0 0 0 0 0 0 0 0 0 0 0 0 0 0 0 0 0 0 0 0 0 0 0 0 0 0 0 0 0 0 0 0 0 0 0 0 0 -0 0 0
Wind_Speed_500mb
29 29 30 31 32 35 44 52 55 58 61 66 69 70 70 71 71 75 74 76 76 75 73 68 63 60 57 54 51 48 47 47 51 50 43 35 38 41 45 51 56 61 62
38 38 38 38 37 38 36 40 48 54 54 56 58 61 62 66 67 69 72 76 75 73 70 70 64 61 58 55 51 50 48 46 50 53 48 46 47 47 55 62 64 68 71
36 35 38 44 42 40 40 40 39 42 46 51 54 57 61 62 62 64 66 67 68 71 68 67 63 62 60 57 54 53 52 51 52 55 54 53 55 57 64 69 74 77 76
44 41 39 47 47 45 42 42 42 44 46 49 53 58 60 62 62 61 59 61 71 65 67 66 63 63 59 57 57 56 55 54 54 56 57 58 59 62 68 77 87 86 88
47 41 46 52 52 54 51 47 46 47 48 51 54 57 61 64 66 65 67 68 68 70 68 67 65 62 61 62 62 59 58 57 55 56 61 61 64 67 72 79 85 89 91
46 48 49 52 57 57 57 55 53 52 53 55 55 57 60 62 65 64 65 67 66 69 69 67 65 63 62 63 63 59 58 57 56 56 60 63 67 69 74 78 79 83 94
47 46 49 52 55 59 62 62 60 60 59 58 59 60 60 61 62 62 65 65 66 66 66 65 64 62 61 61 61 61 59 58 56 55 61 63 70 71 73 74 72 75 83
55 56 54 54 57 61 64 65 67 66 65 62 59 58 59 59 62 63 64 63 63 63 63 62 61 60 60 62 61 60 58 56 52 55 59 64 66 70 64 64 68 74 83
58 57 57 57 55 55 56 59 60 58 57 58 58 56 54 55 59 61 60 60 59 58 58 57 57 56 56 60 59 59 59 56 54 58 63 66 64 57 54 59 58 63 78
52 52 53 52 52 51 51 49 49 48 44 44 46 46 47 49 55 64 59 55 54 53 50 50 54 53 53 57 55 54 54 57 62 68 63 56 50 48 47 45 47 53 55
47 43 42 44 44 42 40 41 39 37 34 30 29 31 36 41 46 54 51 47 45 43 44 46 46 47 44 38 43 49 55 58 60 56 51 49 48 46 45 45 43 46 54
36 38 38 37 34 33 30 29 28 25 23 21 20 23 27 30 36 40 37 38 40 38 38 38 37 38 48 50 45 44 47 45 44 45 46 46 48 48 49 48 49 50 51
25 26 28 28 28 25 24 20 18 17 15 15 14 15 17 18 20 23 21 20 21 24 29 34 35 34 36 35 33 34 36 37 41 43 47 47 48 50 53 56 58 59 62
20 17 15 14 16 18 16 14 14 13 15 18 17 15 16 17 19 22 22 19 17 19 19 21 20 20 21 21 23 26 30 37 40 43 46 49 53 56 58 60 66 68 76
9 10 11 12 11 9 10 11 10 2 3 4 4 5 6 8 11 13 13 14 21 21 17 18 19 20 22 24 26 29 29 34 39 42 48 52 56 61 62 63 65 70 75
12 14 15 16 16 15 14 13 13 11 10 7 9 12 12 15 19 17 18 23 23 21 20 21 23 24 25 29 32 35 36 39 44 48 52 56 61 64 67 68 68 70 77
16 15 15 15 15 15 14 14 15 15 16 15 15 15 18 18 17 22 26 20 18 18 19 23 23 28 32 34 37 41 45 45 47 49 53 56 60 65 68 71 72 75 79
19 20 19 18 17 15 14 15 15 16 16 14 16 18 19 19 21 21 23 19 17 19 23 27 27 29 35 39 40 43 47 50 52 54 57 60 62 67 71 73 75 78 80
19 19 18 18 17 18 17 17 18 17 16 14 13 15 17 19 22 24 24 25 25 24 26 29 30 32 36 40 43 46 50 52 53 60 63 65 66 69 74 76 79 81 82
22 22 22 21 21 20 19 19 18 18 19 19 19 18 20 20 18 18 22 25 27 28 31 33 34 36 40 44 46 49 52 53 58 62 66 69 71 73 78 80 82 85 87
26 25 24 23 22 22 21 21 21 22 23 22 23 24 26 28 25 26 26 27 30 31 34 37 39 41 43 45 49 52 56 57 61 66 72 76 76 79 80 83 87 88 91
29 27 26 25 25 24 24 24 24 24 24 24 23 23 27 28 29 31 32 34 35 36 38 41 43 44 45 48 50 54 57 60 64 69 76 79 78 80 84 89 91 90 87
31 28 27 26 26 25 24 24 25 25 26 27 28 28 27 29 32 34 36 38 40 42 42 45 47 47 45 47 49 54 58 60 66 72 79 82 81 83 91 94 94 89 87
29 29 28 28 29 29 29 28 28 30 32 32 32 33 35 37 38 38 39 42 44 45 45 46 47 48 50 52 54 55 57 60 67 77 79 80 82 92 94 91 88 84 92
29 30 29 28 29 30 31 32 33 34 35 36 37 38 39 40 42 42 43 45 48 49 49 49 49 50 51 54 55 56 57 59 67 74 77 76 89 93 85 95 99 103 95
32 31 31 32 33 33 35 37 37 37 38 38 39 41 43 44 45 46 47 49 51 51 51 51 51 49 50 53 54 57 59 62 73 77 73 82 84 85 104 86 103 89 77
Wind_Direction_500mb
353 342 332 321 304 285 275 269 268 270 267 266 264 263 261 261 260 259 254 248 244 244 245 247 242 241 241 240 240 241 243 245 255 269 277 288 299 310 315 315 316 314 314
340 341 345 338 323 312 294 280 274 270 267 265 264 262 260 260 258 254 250 246 245 243 244 239 241 239 238 238 237 238 241 248 257 269 280 290 298 308 314 315 314 310 309
323 319 316 324 323 315 305 295 279 274 271 268 264 260 258 256 255 253 251 247 245 245 241 243 241 239 238 235 234 235 240 247 256 267 278 288 297 306 308 309 309 308 306
310 306 302 312 311 307 298 289 287 282 274 269 267 265 263 261 259 258 255 248 242 242 242 240 238 238 236 236 235 238 243 247 254 265 276 286 294 302 306 308 307 307 305
290 289 293 300 301 303 294 285 279 274 273 271 267 263 261 259 257 254 248 244 244 242 239 238 237 235 234 235 238 242 246 252 258 267 277 286 293 300 304 306 305 306 305
287 282 285 292 295 298 294 284 279 275 271 268 266 264 261 258 255 250 247 246 245 242 240 239 238 237 237 240 245 250 253 258 264 271 280 287 294 298 299 300 302 307 309
299 294 288 286 286 288 287 284 283 278 273 270 269 267 263 258 254 250 247 245 242 241 240 239 239 240 242 245 249 253 258 263 269 275 282 289 293 296 297 300 302 302 302
299 296 293 289 286 284 284 282 282 281 275 269 266 266 265 261 255 251 247 244 240 239 238 239 240 242 245 247 251 256 260 264 270 277 283 288 290 293 296 299 299 301 300
303 300 299 297 294 291 286 284 282 280 276 269 265 263 261 256 253 249 244 241 240 239 240 242 245 248 252 258 261 263 267 273 281 287 290 292 289 291 295 296 301 301 304
306 305 303 301 301 301 298 294 291 285 278 270 263 257 253 250 250 252 249 242 242 243 245 247 251 253 258 261 267 273 279 287 293 296 286 287 291 294 295 296 298 299 303
311 312 312 308 305 304 304 302 298 295 286 273 259 246 240 240 245 250 249 247 246 246 247 250 253 257 262 272 281 291 295 292 286 289 294 297 298 301 302 301 299 297 296
316 319 321 320 318 313 310 309 309 305 294 275 253 238 234 237 245 257 263 261 258 258 259 261 265 273 283 289 294 286 280 286 291 296 299 303 306 307 307 307 304 299 292
327 332 333 332 330 330 329 330 329 333 323 300 278 253 244 251 265 280 289 286 283 278 279 283 290 289 281 277 279 286 292 295 298 301 305 308 310 312 312 312 308 308 304
328 336 340 347 359 1 350 344 344 351 347 337 326 313 299 294 293 300 306 304 290 276 269 273 277 286 294 298 297 297 301 302 302 304 308 310 311 311 313 314 313 315 312
335 338 344 341 340 339 355 10 18 33 161 161 222 248 262 265 286 298 317 316 308 316 321 310 301 293 293 295 298 301 305 307 310 313 313 315 315 314 316 316 315 314 312
321 321 325 330 331 336 336 331 330 337 322 318 310 304 298 302 309 315 296 299 307 311 309 305 307 309 311 313 316 318 319 322 322 321 320 320 318 317 317 315 315 313 311
333 330 329 334 334 338 336 329 326 327 326 326 316 301 301 299 299 293 300 300 299 302 315 314 322 322 323 322 323 323 325 327 325 323 321 320 319 318 316 314 316 313 311
334 336 340 341 339 335 327 317 312 306 301 298 297 290 286 287 288 299 299 308 310 318 323 320 325 330 322 320 321 323 323 326 326 325 324 323 321 317 314 314 315 314 313
324 325 327 329 326 324 322 322 321 320 318 314 306 304 303 304 305 303 307 312 318 327 321 320 326 326 320 320 321 321 320 323 326 326 325 322 320 318 314 315 315 314 315
314 315 318 320 319 317 316 315 312 311 309 308 306 301 293 296 286 293 309 314 318 320 319 320 324 323 325 325 322 319 317 320 325 326 324 321 321 320 316 314 313 313 312
309 309 311 310 307 307 305 302 302 302 302 303 302 301 302 306 312 314 314 312 315 317 316 320 323 323 322 323 323 321 320 322 325 326 323 320 319 317 315 314 313 310 304
301 301 303 304 304 303 303 302 300 298 299 298 297 297 300 304 307 310 311 312 314 314 315 316 318 319 319 321 322 319 319 321 325 324 320 319 316 314 315 314 310 303 296
298 299 301 302 302 301 299 297 296 296 295 296 298 300 299 299 301 304 306 307 308 311 314 312 312 314 315 316 318 319 317 318 322 322 319 316 313 315 316 314 308 298 293
293 292 293 295 295 297 297 296 295 296 297 297 298 298 299 300 300 301 302 303 305 307 308 309 311 314 315 316 316 317 315 316 319 320 318 315 316 319 317 309 299 294 294
287 288 289 286 288 289 289 290 291 292 292 293 293 294 294 295 297 299 300 302 304 307 310 311 313 314 315 316 317 317 315 314 319 322 321 320 319 314 305 300 300 301 298
282 281 281 282 286 287 291 294 294 294 294 293 293 293 294 295 297 299 302 303 304 307 308 311 314 313 314 317 319 319 318 319 324 326 327 322 310 302 309 302 304 304 300
Wind_Speed_850mb
29 29 30 31 32 35 44 52 55 58 61 66 69 70 70 71 71 75 74 76 76 75 73 68 63 60 57 54 51 48 47 47 51 50 43 35 38 41 45 51 56 61 62
38 38 38 38 37 38 36 40 48 54 54 56 58 61 62 66 67 69 72 76 75 73 70 70 64 61 58 55 51 50 48 46 50 53 48 46 47 47 55 62 64 68 71
36 35 38 44 42 40 40 40 39 42 46 51 54 57 61 62 62 64 66 67 68 71 68 67 63 62 60 57 54 53 52 51 52 55 54 53 55 57 64 69 74 77 76
44 41 39 47 47 45 42 42 42 44 46 49 53 58 60 62 62 61 59 61 71 65 67 66 63 63 59 57 57 56 55 54 54 56 57 58 59 62 68 77 87 86 88
47 41 46 52 52 54 51 47 46 47 48 51 54 57 61 64 66 65 67 68 68 70 68 67 65 62 61 62 62 59 58 57 55 56 61 61 64 67 72 79 85 89 91
46 48 49 52 57 57 57 55 53 52 53 55 55 57 60 62 65 64 65 67 66 69 69 67 65 63 62 63 63 59 58 57 56 56 60 63 67 69 74 78 79 83 94
47 46 49 52 55 59 62 62 60 60 59 58 59 60 60 61 62 62 65 65 66 66 66 65 64 62 61 61 61 61 59 58 56 55 61 63 70 71 73 74 72 75 83
55 56 54 54 57 61 64 65 67 66 65 62 59 58 59 59 62 63 64 63 63 63 63 62 61 60 60 62 61 60 58 56 52 55 59 64 66 70 64 64 68 74 83
58 57 57 57 55 55 56 59 60 58 57 58 58 56 54 55 59 61 60 60 59 58 58 57 57 56 56 60 59 59 59 56 54 58 63 66 64 57 54 59 58 63 78
52 52 53 52 52 51 51 49 49 48 44 44 46 46 47 49 55 64 59 55 54 53 50 50 54 53 53 57 55 54 54 57 62 68 63 56 50 48 47 45 47 53 55
47 43 42 44 44 42 40 41 39 37 34 30 29 31 36 41 46 54 51 47 45 43 44 46 46 47 44 38 43 49 55 58 60 56 51 49 48 46 45 45 43 46 54
36 38 38 37 34 33 30 29 28 25 23 21 20 23 27 30 36 40 37 38 40 38 38 38 37 38 48 50 45 44 47 45 44 45 46 46 48 48 49 48 49 50 51
25 26 28 28 28 25 24 20 18 17 15 15 14 15 17 18 20 23 21 20 21 24 29 34 35 34 36 35 33 34 36 37 41 43 47 47 48 50 53 56 58 59 62
20 17 15 14 16 18 16 14 14 13 15 18 17 15 16 17 19 22 22 19 17 19 19 21 20 20 21 21 23 26 30 37 40 43 46 49 53 56 58 60 66 68 76
9 10 11 12 11 9 10 11 10 2 3 4 4 5 6 8 11 13 13 14 21 21 17 18 19 20 22 24 26 29 29 34 39 42 48 52 56 61 62 63 65 70 75
12 14 15 16 16 15 14 13 13 11 10 7 9 12 12 15 19 17 18 23 23 21 20 21 23 24 25 29 32 35 36 39 44 48 52 56 61 64 67 68 68 70 77
16 15 15 15 15 15 14 14 15 15 16 15 15 15 18 18 17 22 26 20 18 18 19 23 23 28 32 34 37 41 45 45 47 49 53 56 60 65 68 71 72 75 79
19 20 19 18 17 15 14 15 15 16 16 14 16 18 19 19 21 21 23 19 17 19 23 27 27 29 35 39 40 43 47 50 52 54 57 60 62 67 71 73 75 78 80
19 19 18 18 17 18 17 17 18 17 16 14 13 15 17 19 22 24 24 25 25 24 26 29 30 32 36 40 43 46 50 52 53 60 63 65 66 69 74 76 79 81 82
22 22 22 21 21 20 19 19 18 18 19 19 19 18 20 20 18 18 22 25 27 28 31 33 34 36 40 44 46 49 52 53 58 62 66 69 71 73 78 80 82 85 87
26 25 24 23 22 22 21 21 21 22 23 22 23 24 26 28 25 26 26 27 30 31 34 37 39 41 43 45 49 52 56 57 61 66 72 76 76 79 80 83 87 88 91
29 27 26 25 25 24 24 24 24 24 24 24 23 23 27 28 29 31 32 34 35 36 38 41 43 44 45 48 50 54 57 60 64 69 76 79 78 80 84 89 91 90 87
31 28 27 26 26 25 24 24 25 25 26 27 28 28 27 29 32 34 36 38 40 42 42 45 47 47 45 47 49 54 58 60 66 72 79 82 81 83 91 94 94 89 87
29 29 28 28 29 29 29 28 28 30 32 32 32 33 35 37 38 38 39 42 44 45 45 46 47 48 50 52 54 55 57 60 67 77 79 80 82 92 94 91 88 84 92
29 30 29 28 29 30 31 32 33 34 35 36 37 38 39 40 42 42 43 45 48 49 49 49 49 50 51 54 55 56 57 59 67 74 77 76 89 93 85 95 99 103 95
32 31 31 32 33 33 35 37 37 37 38 38 39 41 43 44 45 46 47 49 51 51 51 51 51 49 50 53 54 57 59 62 73 77 73 82 84 85 104 86 103 89 77
Wind_Direction_850mb
353 342 332 321 304 285 275 269 268 270 267 266 264 263 261 261 260 259 254 248 244 244 245 247 242 241 241 240 240 241 243 245 255 269 277 288 299 310 315 315 316 314 314
340 341 345 338 323 312 294 280 274 270 267 265 264 262 260 260 258 254 250 246 245 243 244 239 241 239 238 238 237 238 241 248 257 269 280 290 298 308 314 315 314 310 309
323 319 316 324 323 315 305 295 279 274 271 268 264 260 258 256 255 253 251 247 245 245 241 243 241 239 238 235 234 235 240 247 256 267 278 288 297 306 308 309 309 308 306
310 306 302 312 311 307 298 289 287 282 274 269 267 265 263 261 259 258 255 248 242 242 242 240 238 238 236 236 235 238 243 247 254 265 276 286 294 302 306 308 307 307 305
290 289 293 300 301 303 294 285 279 274 273 271 267 263 261 259 257 254 248 244 244 242 239 238 237 235 234 235 238 242 246 252 258 267 277 286 293 300 304 306 305 306 305
287 282 285 292 295 298 294 284 279 275 271 268 266 264 261 258 255 250 247 246 245 242 240 239 238 237 237 240 245 250 253 258 264 271 280 287 294 298 299 300 302 307 309
299 294 288 286 286 288 287 284 283 278 273 270 269 267 263 258 254 250 247 245 242 241 240 239 239 240 242 245 249 253 258 263 269 275 282 289 293 296 297 300 302 302 302
299 296 293 289 286 284 284 282 282 281 275 269 266 266 265 261 255 251 247 244 240 239 238 239 240 242 245 247 251 256 260 264 270 277 283 288 290 293 296 299 299 301 300
303 300 299 297 294 291 286 284 282 280 276 269 265 263 261 256 253 249 244 241 240 239 240 242 245 248 252 258 261 263 267 273 281 287 290 292 289 291 295 296 301 301 304
306 305 303 301 301 301 298 294 291 285 278 270 263 257 253 250 250 252 249 242 242 243 245 247 251 253 258 261 267 273 279 287 293 296 286 287 291 294 295 296 298 299 303
311 312 312 308 305 304 304 302 298 295 286 273 259 246 240 240 245 250 249 247 246 246 247 250 253 257 262 272 281 291 295 292 286 289 294 297 298 301 302 301 299 297 296
316 319 321 320 318 313 310 309 309 305 294 275 253 238 234 237 245 257 263 261 258 258 259 261 265 273 283 289 294 286 280 286 291 296 299 303 306 307 307 307 304 299 292
327 332 333 332 330 330 329 330 329 333 323 300 278 253 244 251 265 280 289 286 283 278 279 283 290 289 281 277 279 286 292 295 298 301 305 308 310 312 312 312 308 308 304
328 336 340 347 359 1 350 344 344 351 347 337 326 313 299 294 293 300 306 304 290 276 269 273 277 286 294 298 297 297 301 302 302 304 308 310 311 311 313 314 313 315 312
335 338 344 341 340 339 355 10 18 33 161 161 222 248 262 265 286 298 317 316 308 316 321 310 301 293 293 295 298 301 305 307 310 313 313 315 315 314 316 316 315 314 312
321 321 325 330 331 336 336 331 330 337 322 318 310 304 298 302 309 315 296 299 307 311 309 305 307 309 311 313 316 318 319 322 322 321 320 320 318 317 317 315 315 313 311
333 330 329 334 334 338 336 329 326 327 326 326 316 301 301 299 299 293 300 300 299 302 315 314 322 322 323 322 323 323 325 327 325 323 321 320 319 318 316 314 316 313 311
334 336 340 341 339 335 327 317 312 306 301 298 297 290 286 287 288 299 299 308 310 318 323 320 325 330 322 320 321 323 323 326 326 325 324 323 321 317 314 314 315 314 313
324 325 327 329 326 324 322 322 321 320 318 314 306 304 303 304 305 303 307 312 318 327 321 320 326 326 320 320 321 321 320 323 326 326 325 322 320 318 314 315 315 314 315
314 315 318 320 319 317 316 315 312 311 309 308 306 301 293 296 286 293 309 314 318 320 319 320 324 323 325 325 322 319 317 320 325 326 324 321 321 320 316 314 313 313 312
309 309 311 310 307 307 305 302 302 302 302 303 302 301 302 306 312 314 314 312 315 317 316 320 323 323 322 323 323 321 320 322 325 326 323 320 319 317 315 314 313 310 304
301 301 303 304 304 303 303 302 300 298 299 298 297 297 300 304 307 310 311 312 314 314 315 316 318 319 319 321 322 319 319 321 325 324 320 319 316 314 315 314 310 303 296
298 299 301 302 302 301 299 297 296 296 295 296 298 300 299 299 301 304 306 307 308 311 314 312 312 314 315 316 318 319 317 318 322 322 319 316 313 315 316 314 308 298 293
293 292 293 295 295 297 297 296 295 296 297 297 298 298 299 300 300 301 302 303 305 307 308 309 311 314 315 316 316 317 315 316 319 320 318 315 316 319 317 309 299 294 294
287 288 289 286 288 289 289 290 291 292 292 293 293 294 294 295 297 299 300 302 304 307 310 311 313 314 315 316 317 317 315 314 319 322 321 320 319 314 305 300 300 301 298
282 281 281 282 286 287 291 294 294 294 294 293 293 293 294 295 297 299 302 303 304 307 308 311 314 313 314 317 319 319 318 319 324 326 327 322 310 302 309 302 304 304 300